When you browse on this site, cookies collect data to enhance your experience and personalize the content and advertising you see.
Visit our Privacy Policy to learn more. By continuing to use the site, you agree to this use of cookies and data.
  • En España
  • Lista de países
  • Para 7 días
  • Temperatura del agua
  • Mapa Satelital
  • El tiempo en el mapa
  • Informadores
  • user-avatar
    Iniciar sesión

    Tiempo cada hora Antwerp

    Hoy, 16 Diciembre, Domingo

    Tiempo Temperatura Precipitaciones Viento Presión Humedad
    00:00 -2°C° 2 mm 6 mps 757 mmHg 92%
    01:00 -2°C° 0.4 mm 6 mps 756 mmHg 92%
    02:00 -1°C° 0.4 mm 5 mps 756 mmHg 93%
    03:00 -1°C° 0.4 mm 5 mps 756 mmHg 94%
    04:00 -1°C° 0 mm 5 mps 756 mmHg 95%
    05:00 0°C° 0 mm 4 mps 756 mmHg 96%
    06:00 0°C° 0 mm 4 mps 756 mmHg 97%
    07:00 0°C° 0 mm 4 mps 756 mmHg 98%
    08:00 0°C° 0 mm 4 mps 756 mmHg 98%
    09:00 +1°C° 0 mm 3 mps 756 mmHg 99%
    10:00 +2°C° 0 mm 3 mps 757 mmHg 99%
    11:00 +2°C° 0 mm 3 mps 757 mmHg 99%
    12:00 +3°C° 0 mm 3 mps 757 mmHg 99%
    13:00 +3°C° 0 mm 3 mps 757 mmHg 99%
    14:00 +3°C° 0 mm 3 mps 757 mmHg 99%
    15:00 +3°C° 0 mm 3 mps 757 mmHg 98%
    16:00 +2°C° 0 mm 3 mps 757 mmHg 98%
    17:00 +2°C° 0 mm 3 mps 757 mmHg 98%
    18:00 +1°C° 0 mm 4 mps 758 mmHg 98%
    19:00 +1°C° 0 mm 4 mps 758 mmHg 97%
    20:00 +1°C° 0 mm 4 mps 758 mmHg 97%
    21:00 +1°C° 0 mm 4 mps 759 mmHg 97%
    22:00 +2°C° 0 mm 3 mps 758 mmHg 96%
    23:00 +2°C° 0 mm 3 mps 758 mmHg 96%

    Mañana, 17 Diciembre, Lunes

    Tiempo Temperatura Precipitaciones Viento Presión Humedad
    00:00 +2°C° 0 mm 3 mps 758 mmHg 95%
    01:00 +2°C° 0.4 mm 3 mps 758 mmHg 95%
    02:00 +3°C° 0.4 mm 4 mps 758 mmHg 95%
    03:00 +3°C° 0.4 mm 4 mps 758 mmHg 94%
    04:00 +3°C° 0.6 mm 3 mps 759 mmHg 95%
    05:00 +3°C° 0.6 mm 3 mps 759 mmHg 95%
    06:00 +4°C° 0.6 mm 2 mps 760 mmHg 95%
    07:00 +4°C° 0.1 mm 2 mps 760 mmHg 96%
    08:00 +4°C° 0.1 mm 2 mps 761 mmHg 96%
    09:00 +4°C° 0.1 mm 2 mps 762 mmHg 96%
    10:00 +5°C° 0 mm 2 mps 762 mmHg 95%
    11:00 +5°C° 0 mm 3 mps 763 mmHg 94%
    12:00 +5°C° 0 mm 3 mps 763 mmHg 93%
    13:00 +5°C° 0 mm 3 mps 764 mmHg 92%
    14:00 +5°C° 0 mm 3 mps 765 mmHg 92%
    15:00 +5°C° 0 mm 3 mps 765 mmHg 92%
    16:00 +5°C° 0 mm 3 mps 766 mmHg 92%
    17:00 +4°C° 0 mm 3 mps 766 mmHg 92%
    18:00 +4°C° 0 mm 3 mps 766 mmHg 92%
    19:00 +3°C° 0 mm 3 mps 767 mmHg 92%
    20:00 +3°C° 0 mm 3 mps 767 mmHg 93%
    21:00 +3°C° 0 mm 4 mps 767 mmHg 93%
    22:00 +3°C° 0 mm 4 mps 768 mmHg 93%
    23:00 +3°C° 0 mm 4 mps 768 mmHg 93%

    Pasado mañana, 18 Diciembre, Martes

    Tiempo Temperatura Precipitaciones Viento Presión Humedad
    00:00 +3°C° 0 mm 4 mps 768 mmHg 93%
    01:00 +3°C° 0 mm 4 mps 767 mmHg 93%
    02:00 +3°C° 0 mm 4 mps 767 mmHg 93%
    03:00 +2°C° 0 mm 5 mps 767 mmHg 93%
    04:00 +2°C° 0 mm 5 mps 766 mmHg 93%
    05:00 +2°C° 0 mm 5 mps 766 mmHg 93%
    06:00 +2°C° 0 mm 5 mps 766 mmHg 93%
    07:00 +2°C° 0 mm 5 mps 766 mmHg 92%
    08:00 +2°C° 0 mm 5 mps 765 mmHg 91%
    09:00 +3°C° 0 mm 6 mps 765 mmHg 90%
    10:00 +4°C° 0 mm 6 mps 764 mmHg 83%
    11:00 +5°C° 0 mm 6 mps 763 mmHg 77%
    12:00 +7°C° 0 mm 6 mps 763 mmHg 70%
    13:00 +5°C° 0 mm 6 mps 762 mmHg 69%
    14:00 +5°C° 0 mm 6 mps 761 mmHg 68%
    15:00 +5°C° 0 mm 6 mps 760 mmHg 67%
    16:00 +4°C° 0 mm 6 mps 760 mmHg 68%
    17:00 +4°C° 0 mm 7 mps 760 mmHg 69%
    18:00 +3°C° 0 mm 7 mps 759 mmHg 71%
    19:00 +4°C° 0 mm 7 mps 759 mmHg 71%
    20:00 +4°C° 0 mm 7 mps 758 mmHg 72%
    21:00 +4°C° 0 mm 6 mps 758 mmHg 73%
    22:00 +4°C° 0.3 mm 7 mps 757 mmHg 76%
    23:00 +5°C° 0.3 mm 7 mps 757 mmHg 79%

    19 Diciembre, Miércoles

    Tiempo Temperatura Precipitaciones Viento Presión Humedad
    00:00 +5°C° 0.3 mm 7 mps 757 mmHg 82%
    01:00 +5°C° 0.5 mm 7 mps 757 mmHg 84%
    02:00 +5°C° 0.5 mm 7 mps 757 mmHg 86%
    03:00 +7°C° 0.5 mm 6 mps 757 mmHg 89%
    04:00 +5°C° 0 mm 6 mps 758 mmHg 89%
    05:00 +5°C° 0 mm 6 mps 758 mmHg 90%
    06:00 +5°C° 0 mm 6 mps 758 mmHg 91%
    07:00 +6°C° 0 mm 5 mps 759 mmHg 91%
    08:00 +6°C° 0 mm 5 mps 759 mmHg 91%
    09:00 +5°C° 0 mm 5 mps 759 mmHg 91%
    10:00 +6°C° 0 mm 4 mps 759 mmHg 88%
    11:00 +7°C° 0 mm 4 mps 759 mmHg 84%
    12:00 +8°C° 0 mm 4 mps 759 mmHg 81%
    13:00 +7°C° 0 mm 4 mps 759 mmHg 83%
    14:00 +7°C° 0 mm 4 mps 759 mmHg 85%
    15:00 +8°C° 0 mm 3 mps 759 mmHg 88%
    16:00 +6°C° 0 mm 4 mps 759 mmHg 89%
    17:00 +6°C° 0 mm 4 mps 759 mmHg 90%
    18:00 +6°C° 0 mm 4 mps 759 mmHg 91%
    19:00 +5°C° 0 mm 4 mps 759 mmHg 92%
    20:00 +5°C° 0 mm 4 mps 759 mmHg 92%
    21:00 +5°C° 0 mm 3 mps 759 mmHg 93%
    22:00 +5°C° 0 mm 3 mps 759 mmHg 93%
    23:00 +4°C° 0 mm 3 mps 759 mmHg 94%

    20 Diciembre, Jueves

    Tiempo Temperatura Precipitaciones Viento Presión Humedad
    00:00 +4°C° 0 mm 3 mps 759 mmHg 95%
    01:00 +4°C° 0 mm 3 mps 760 mmHg 94%
    02:00 +4°C° 0 mm 3 mps 760 mmHg 94%
    03:00 +3°C° 0 mm 3 mps 760 mmHg 94%
    04:00 +3°C° 0 mm 3 mps 760 mmHg 94%
    05:00 +3°C° 0 mm 3 mps 760 mmHg 93%
    06:00 +3°C° 0 mm 3 mps 761 mmHg 93%
    07:00 +3°C° 0 mm 4 mps 761 mmHg 93%
    08:00 +3°C° 0 mm 4 mps 761 mmHg 92%
    09:00 +3°C° 0 mm 4 mps 762 mmHg 91%
    10:00 +3°C° 0 mm 5 mps 762 mmHg 88%
    11:00 +5°C° 0 mm 5 mps 762 mmHg 85%
    12:00 +6°C° 0 mm 5 mps 762 mmHg 82%
    13:00 +6°C° 0 mm 5 mps 762 mmHg 84%
    14:00 +5°C° 0 mm 5 mps 762 mmHg 85%
    15:00 +5°C° 0 mm 5 mps 761 mmHg 87%
    16:00 +5°C° 0.2 mm 5 mps 762 mmHg 87%
    17:00 +4°C° 0.2 mm 6 mps 762 mmHg 88%
    18:00 +4°C° 0.2 mm 6 mps 762 mmHg 89%
    19:00 +4°C° 0.2 mm 6 mps 762 mmHg 89%
    20:00 +5°C° 0.2 mm 5 mps 762 mmHg 89%
    21:00 +5°C° 0.2 mm 5 mps 762 mmHg 89%
    22:00 +5°C° 0 mm 5 mps 762 mmHg 90%
    23:00 +5°C° 0 mm 5 mps 762 mmHg 92%

    21 Diciembre, Viernes

    Tiempo Temperatura Precipitaciones Viento Presión Humedad
    00:00 +4°C° 0 mm 4 mps 762 mmHg 93%
    01:00 +4°C° 0 mm 4 mps 762 mmHg 93%
    02:00 +4°C° 0 mm 4 mps 762 mmHg 94%
    03:00 +4°C° 0 mm 4 mps 762 mmHg 94%
    04:00 +4°C° 0 mm 4 mps 761 mmHg 94%
    05:00 +4°C° 0 mm 4 mps 761 mmHg 94%
    06:00 +4°C° 0 mm 4 mps 761 mmHg 94%
    07:00 +3°C° 0.4 mm 5 mps 760 mmHg 93%
    08:00 +4°C° 0.4 mm 6 mps 760 mmHg 91%
    09:00 +4°C° 0.4 mm 6 mps 759 mmHg 90%
    10:00 +5°C° 0.8 mm 7 mps 758 mmHg 88%
    11:00 +5°C° 0.8 mm 7 mps 757 mmHg 87%
    12:00 +5°C° 0.8 mm 8 mps 755 mmHg 86%
    13:00 +6°C° 1 mm 8 mps 755 mmHg 86%
    14:00 +6°C° 1 mm 8 mps 754 mmHg 86%
    15:00 +6°C° 1 mm 9 mps 753 mmHg 86%
    16:00 +7°C° 0.2 mm 8 mps 753 mmHg 86%
    17:00 +9°C° 0.2 mm 8 mps 753 mmHg 85%
    18:00 +10°C° 0.2 mm 8 mps 754 mmHg 84%
    19:00 +9°C° 0 mm 7 mps 754 mmHg 84%
    20:00 +9°C° 0 mm 7 mps 755 mmHg 84%
    21:00 +8°C° 0 mm 7 mps 756 mmHg 83%
    22:00 +8°C° 0 mm 7 mps 756 mmHg 85%
    23:00 +7°C° 0 mm 6 mps 757 mmHg 87%
    Mostrar más